Time,TemperatureF,DewpointF,PressureIn,WindDirection,WindDirectionDegrees,WindSpeedMPH,WindSpeedGustMPH,Humidity,HourlyPrecipIn,Conditions,Clouds,dailyrainin,SolarRadiationWatts/m^2,SoftwareType,DateUTC
2013-04-27 00:21:00,52.0,38.0,30.27,SE,139,3.0,4.0,58,-99.99,,,-99.99,0.000000,,2013-04-27 07:21:00,
2013-04-27 00:31:00,52.0,38.0,30.27,SE,139,3.0,4.0,58,-99.99,,,-99.99,0.000000,,2013-04-27 07:31:00,
2013-04-27 01:21:00,47.0,35.0,30.28,NE,48,4.0,5.0,64,-99.99,,,-99.99,0.000000,,2013-04-27 08:21:00,
2013-04-27 01:40:00,46.0,39.0,30.27,SSW,210,4.0,5.0,76,-99.99,,,-99.99,0.000000,,2013-04-27 08:40:00,
2013-04-27 02:21:00,46.0,39.0,30.27,SSW,210,4.0,5.0,76,-99.99,,,-99.99,0.000000,,2013-04-27 09:21:00,
2013-04-27 02:33:00,46.0,39.0,30.27,SSW,210,4.0,5.0,76,-99.99,,,-99.99,0.000000,,2013-04-27 09:33:00,
2013-04-27 02:40:00,45.0,35.0,30.27,East,92,2.0,3.0,69,-99.99,,,-99.99,0.000000,,2013-04-27 09:40:00,
2013-04-27 03:22:00,45.0,35.0,30.27,East,92,2.0,3.0,69,-99.99,,,-99.99,0.000000,,2013-04-27 10:22:00,
2013-04-27 03:32:00,45.0,35.0,30.27,East,92,2.0,3.0,69,-99.99,,,-99.99,0.000000,,2013-04-27 10:32:00,
2013-04-27 04:22:00,39.0,36.0,30.28,ESE,122,1.0,2.0,88,-99.99,,,-99.99,0.000000,,2013-04-27 11:22:00,
2013-04-27 04:40:00,41.0,37.0,30.28,West,264,1.0,3.0,88,-99.99,,,-99.99,0.000000,,2013-04-27 11:40:00,
2013-04-27 05:21:00,41.0,37.0,30.28,West,264,1.0,3.0,88,-99.99,,,-99.99,0.000000,,2013-04-27 12:21:00,
2013-04-27 05:32:00,41.0,37.0,30.28,West,264,1.0,3.0,88,-99.99,,,-99.99,0.000000,,2013-04-27 12:32:00,
2013-04-27 06:21:00,38.0,33.0,30.29,ENE,66,1.0,2.0,82,-99.99,,,-99.99,0.000000,,2013-04-27 13:21:00,
2013-04-27 06:40:00,38.0,36.0,30.30,South,178,1.0,2.0,90,-99.99,,,-99.99,50.000000,,2013-04-27 13:40:00,
2013-04-27 07:21:00,38.0,36.0,30.30,South,178,1.0,2.0,90,-99.99,,,-99.99,50.000000,,2013-04-27 14:21:00,
2013-04-27 07:31:00,38.0,36.0,30.30,South,178,1.0,2.0,90,-99.99,,,-99.99,50.000000,,2013-04-27 14:31:00,
2013-04-27 07:40:00,47.0,39.0,30.30,SSW,212,0.0,1.0,73,-99.99,,,-99.99,230.000000,,2013-04-27 14:40:00,
2013-04-27 08:33:00,47.0,39.0,30.30,SSW,212,0.0,1.0,73,-99.99,,,-99.99,230.000000,,2013-04-27 15:33:00,
2013-04-27 08:40:00,54.0,40.0,30.31,WSW,256,0.0,2.0,58,-99.99,,,-99.99,450.000000,,2013-04-27 15:40:00,
2013-04-27 09:22:00,54.0,40.0,30.31,WSW,256,0.0,2.0,58,-99.99,,,-99.99,450.000000,,2013-04-27 16:22:00,
2013-04-27 09:32:00,54.0,40.0,30.31,WSW,256,0.0,2.0,58,-99.99,,,-99.99,450.000000,,2013-04-27 16:32:00,
2013-04-27 09:40:00,59.0,39.0,30.31,NW,314,1.0,2.0,47,-99.99,,,-99.99,660.000000,,2013-04-27 16:40:00,
2013-04-27 10:22:00,59.0,39.0,30.31,NW,314,1.0,2.0,47,-99.99,,,-99.99,660.000000,,2013-04-27 17:22:00,
2013-04-27 10:31:00,59.0,39.0,30.31,NW,314,1.0,2.0,47,-99.99,,,-99.99,660.000000,,2013-04-27 17:31:00,
2013-04-27 10:40:00,65.0,38.0,30.31,SW,222,1.0,2.0,37,-99.99,,,-99.99,830.000000,,2013-04-27 17:40:00,
2013-04-27 11:22:00,65.0,38.0,30.31,SW,222,1.0,2.0,37,-99.99,,,-99.99,830.000000,,2013-04-27 18:22:00,
2013-04-27 11:32:00,65.0,38.0,30.31,SW,222,1.0,2.0,37,-99.99,,,-99.99,830.000000,,2013-04-27 18:32:00,
2013-04-27 11:40:00,69.0,37.0,30.30,WNW,297,2.0,4.0,31,-99.99,,,-99.99,940.000000,,2013-04-27 18:40:00,
2013-04-27 12:21:00,69.0,37.0,30.30,WNW,297,2.0,4.0,31,-99.99,,,-99.99,940.000000,,2013-04-27 19:21:00,
2013-04-27 12:32:00,69.0,37.0,30.30,WNW,297,2.0,4.0,31,-99.99,,,-99.99,940.000000,,2013-04-27 19:32:00,
2013-04-27 12:40:00,73.0,31.0,30.27,SSE,150,4.0,8.0,21,-99.99,,,-99.99,1000.000000,,2013-04-27 19:40:00,
2013-04-27 13:21:00,73.0,31.0,30.27,SSE,150,4.0,8.0,21,-99.99,,,-99.99,1000.000000,,2013-04-27 20:21:00,
2013-04-27 13:32:00,73.0,31.0,30.27,SSE,150,4.0,8.0,21,-99.99,,,-99.99,1000.000000,,2013-04-27 20:32:00,
2013-04-27 13:40:00,75.0,33.0,30.24,South,184,4.0,7.0,21,-99.99,,,-99.99,980.000000,,2013-04-27 20:40:00,
2013-04-27 14:21:00,75.0,33.0,30.24,South,184,4.0,7.0,21,-99.99,,,-99.99,980.000000,,2013-04-27 21:21:00,
2013-04-27 14:32:00,75.0,33.0,30.24,South,184,4.0,7.0,21,-99.99,,,-99.99,980.000000,,2013-04-27 21:32:00,
2013-04-27 14:40:00,74.0,35.0,30.22,WNW,290,11.0,18.0,24,-99.99,,,-99.99,910.000000,,2013-04-27 21:40:00,
2013-04-27 15:32:00,74.0,35.0,30.22,WNW,290,11.0,18.0,24,-99.99,,,-99.99,910.000000,,2013-04-27 22:32:00,
2013-04-27 16:22:00,74.0,38.0,30.20,West,278,11.0,16.0,27,-99.99,,,-99.99,770.000000,,2013-04-27 23:22:00,
2013-04-27 16:40:00,74.0,36.0,30.19,West,273,13.0,20.0,25,-99.99,,,-99.99,600.000000,,2013-04-27 23:40:00,
2013-04-27 17:31:00,74.0,36.0,30.19,West,273,13.0,20.0,25,-99.99,,,-99.99,600.000000,,2013-04-28 00:31:00,
2013-04-27 17:40:00,72.0,36.0,30.17,West,275,17.0,24.0,26,-99.99,,,-99.99,390.000000,,2013-04-28 00:40:00,
2013-04-27 18:21:00,72.0,36.0,30.17,West,275,17.0,24.0,26,-99.99,,,-99.99,390.000000,,2013-04-28 01:21:00,
2013-04-27 18:31:00,72.0,36.0,30.17,West,275,17.0,24.0,26,-99.99,,,-99.99,390.000000,,2013-04-28 01:31:00,
2013-04-27 18:40:00,70.0,36.0,30.16,West,274,16.0,25.0,28,-99.99,,,-99.99,170.000000,,2013-04-28 01:40:00,
2013-04-27 19:21:00,70.0,36.0,30.16,West,274,16.0,25.0,28,-99.99,,,-99.99,170.000000,,2013-04-28 02:21:00,
2013-04-27 19:32:00,70.0,36.0,30.16,West,274,16.0,25.0,28,-99.99,,,-99.99,170.000000,,2013-04-28 02:32:00,
2013-04-27 19:40:00,68.0,35.0,30.16,WNW,284,14.0,24.0,29,-99.99,,,-99.99,10.000000,,2013-04-28 02:40:00,
2013-04-27 20:21:00,68.0,35.0,30.16,WNW,284,14.0,24.0,29,-99.99,,,-99.99,10.000000,,2013-04-28 03:21:00,
2013-04-27 20:32:00,68.0,35.0,30.16,WNW,284,14.0,24.0,29,-99.99,,,-99.99,10.000000,,2013-04-28 03:32:00,
2013-04-27 20:40:00,66.0,35.0,30.17,WNW,285,15.0,24.0,31,-99.99,,,-99.99,0.000000,,2013-04-28 03:40:00,
2013-04-27 21:22:00,66.0,35.0,30.17,WNW,285,15.0,24.0,31,-99.99,,,-99.99,0.000000,,2013-04-28 04:22:00,
2013-04-27 21:32:00,66.0,35.0,30.17,WNW,285,15.0,24.0,31,-99.99,,,-99.99,0.000000,,2013-04-28 04:32:00,
2013-04-27 21:40:00,64.0,35.0,30.19,SW,232,7.0,11.0,34,-99.99,,,-99.99,0.000000,,2013-04-28 04:40:00,
2013-04-27 22:22:00,64.0,35.0,30.19,SW,232,7.0,11.0,34,-99.99,,,-99.99,0.000000,,2013-04-28 05:22:00,
2013-04-27 22:32:00,64.0,35.0,30.19,SW,232,7.0,11.0,34,-99.99,,,-99.99,0.000000,,2013-04-28 05:32:00,